This demonstration page uses our WeatherBlox Daily Observations layout. Learn more.

Left ArrowRight Arrow

39.08367, -84.50855

Hourly Observations for January 8, 2021

Temp ( °F °C ) Dew Point ( °F °C ) Humidity (%) Winds ( mph kmh ) Pressure ( in mb ) Visibility ( mi km ) Precip ( " mm )
12:53 am 00:53 Cloudy 34 1.1 26 -3.3 73 73 NNE 7 11 30.18 1022 10 16.0934 0 0
1:53 am 01:53 Cloudy 33 0.6 26 -3.3 75 75 NE 9 15 30.16 1021 10 16.0934 0 0
2:53 am 02:53 Mostly Cloudy 33 0.6 25 -3.9 72 72 NNE 9 15 30.16 1021 10 16.0934 0 0
3:53 am 03:53 Cloudy 33 0.6 25 -3.9 72 72 NNE 10 17 30.14 1021 10 16.0934 0 0
4:25 am 04:25 Cloudy 33 0.6 25 -3.9 72 72 NNE 8 13 30.16 1021 10 16.0934 0 0
4:53 am 04:53 Cloudy 33 0.6 25 -3.9 72 72 NE 9 15 30.14 1021 10 16.0934 0 0
5:53 am 05:53 Cloudy 33 0.6 25 -3.9 72 72 NNE 10 17 30.14 1021 10 16.0934 0 0
6:53 am 06:53 Cloudy 33 0.6 25 -3.9 72 72 NNE 8 13 30.14 1021 10 16.0934 0 0
7:53 am 07:53 Cloudy 33 0.6 25 -3.9 72 72 N 9 15 30.14 1021 10 16.0934 0 0
8:53 am 08:53 Cloudy 33 0.6 25 -3.9 72 72 N 9 15 30.16 1021 10 16.0934 0 0
9:53 am 09:53 Cloudy 33 0.6 25 -3.9 72 72 NNE 12 19 30.16 1021 10 16.0934 0 0
10:53 am 10:53 Cloudy 34 1.1 25 -3.9 70 70 NNE 7 11 30.16 1021 10 16.0934 0 0
11:53 am 11:53 Cloudy 35 1.7 25 -3.9 67 67 NNE 9 15 30.14 1021 10 16.0934 0 0
12:53 pm 12:53 Cloudy 35 1.7 25 -3.9 67 67 N 8 13 30.13 1020 10 16.0934 0 0
1:53 pm 13:53 Cloudy 35 1.7 25 -3.9 67 67 NNW 13 20 30.11 1020 10 16.0934 0 0
2:53 pm 14:53 Cloudy 34 1.1 24 -4.4 67 67 NNW 10 17 30.11 1020 10 16.0934 0 0
3:53 pm 15:53 Cloudy 34 1.1 23 -5 64 64 NNE 8 13 30.13 1020 10 16.0934 0 0
4:53 pm 16:53 Cloudy 33 0.6 22 -5.6 64 64 N 12 19 30.14 1021 10 16.0934 0 0
5:53 pm 17:53 Cloudy 31 -0.6 22 -5.6 69 69 N 10 17 30.16 1021 10 16.0934 0 0
6:53 pm 18:53 Cloudy 31 -0.6 22 -5.6 69 69 N 12 19 30.17 1022 10 16.0934 0 0
7:53 pm 19:53 Cloudy 32 0 22 -5.6 66 66 N 13 20 30.17 1022 10 16.0934 0 0
8:53 pm 20:53 Cloudy 32 0 22 -5.6 66 66 N 7 11 30.18 1022 10 16.0934 0 0
9:53 pm 21:53 Cloudy 32 0 23 -5 69 69 N 10 17 30.18 1022 10 16.0934 0 0
10:53 pm 22:53 Cloudy 32 0 23 -5 69 69 NNE 6 9 30.17 1022 10 16.0934 0 0
11:53 pm 23:53 Cloudy 32 0 23 -5 69 69 NE 7 11 30.16 1022 10 16.0934 0 0

Powered by AerisWeather